Weather History for KOCH - April, 2013

Change the Weather History Date:

Wednesday, April 24, 2013

  Actual Average Record
Temperature  
Mean Temperature 54 °F -  
Max Temperature 66 °F 76 °F 89 °F (2011)
Min Temperature 42 °F 55 °F 42 °F (1998)
Degree Days  
Heating Degree Days 11    
Growing Degree Days 4 (Base 50)    
Moisture  
Dew Point 40 °F    
Average Humidity 62    
Maximum Humidity 81    
Minimum Humidity 42    
Precipitation  
Precipitation 0.06 in - - ()
Sea Level Pressure  
Sea Level Pressure 30.19 in    
Wind  
Wind Speed 12 mph (North)    
Max Wind Speed 21 mph    
Max Gust Speed 28 mph    
Visibility 10 miles    
Events Thunderstorm    
Averages and records for this station are not official NWS values.
T = Trace of Precipitation, MM = Missing Value Source: NWS Daily Summary

Daily Weather History Graph

Daily Weather History Graph

Search for Another Location

Airport or City:

Trip Planner

Search our weather history database for the weather conditions in past years. The results will help you decide how hot, cold, wet, or windy it might be!

Date:

Astronomy

Apr. 24, 2013 Rise Set
Actual Time 6:40 AM CDT 7:54 PM CDT
Civil Twilight 6:14 AM CDT 8:19 PM CDT
Nautical Twilight 5:44 AM CDT 8:49 PM CDT
Astronomical Twilight 5:13 AM CDT 9:21 PM CDT
Moon 7:00 PM CDT (4/24) 5:40 AM CDT (4/24)
Length of Visible Light 14h 04m
Length of Day
13h 13m
Waxing Gibbous, 98% of the Moon is Illuminated
Apr 24
Waxing Gibbous
Apr 25
Full
May 2
Last Quarter
May 9
New
May 17
First Quarter

Hourly Weather History & Observations

Time (CDT) Temp. Windchill Dew Point Humidity Pressure Visibility Wind Dir Wind Speed Gust Speed Precip Events Conditions
12:15 AM 55.4 °F - 46.4 °F 72% 30.05 in 10.0 mi North 13.8 mph - N/A   Overcast
12:35 AM 55.4 °F - 46.4 °F 72% 30.06 in 10.0 mi NNW 15.0 mph 19.6 mph N/A   Overcast
12:55 AM 53.6 °F - 44.6 °F 72% 30.07 in 10.0 mi NW 12.7 mph - N/A   Overcast
1:15 AM 53.6 °F - 44.6 °F 72% 30.07 in 10.0 mi NW 16.1 mph - N/A   Overcast
1:35 AM 51.8 °F - 42.8 °F 71% 30.07 in 10.0 mi NNW 12.7 mph 19.6 mph N/A   Overcast
1:55 AM 51.8 °F - 41.0 °F 67% 30.07 in 10.0 mi NNW 15.0 mph - N/A   Overcast
2:15 AM 50.0 °F - 41.0 °F 71% 30.09 in 10.0 mi NNW 16.1 mph 21.9 mph N/A   Overcast
2:35 AM 48.2 °F - 39.2 °F 71% 30.09 in 10.0 mi North 16.1 mph 21.9 mph N/A   Overcast
2:55 AM 48.2 °F - 39.2 °F 71% 30.09 in 10.0 mi North 15.0 mph 19.6 mph N/A   Overcast
3:15 AM 48.2 °F - 39.2 °F 71% 30.09 in 10.0 mi NNW 15.0 mph 21.9 mph N/A   Overcast
3:35 AM 48.2 °F - 39.2 °F 71% 30.10 in 10.0 mi NNW 13.8 mph - N/A   Overcast
3:55 AM 46.4 °F 39.5 °F 39.2 °F 76% 30.11 in 10.0 mi NNW 17.3 mph 26.5 mph N/A   Overcast
4:15 AM 46.4 °F 39.8 °F 37.4 °F 71% 30.11 in 10.0 mi NNW 16.1 mph 25.3 mph N/A   Overcast
4:35 AM 46.4 °F 40.1 °F 37.4 °F 71% 30.12 in 10.0 mi NNW 15.0 mph 21.9 mph N/A   Overcast
4:55 AM 46.4 °F 40.1 °F 37.4 °F 71% 30.13 in 10.0 mi NNW 15.0 mph - N/A   Overcast
5:15 AM 46.4 °F 39.8 °F 37.4 °F 71% 30.13 in 10.0 mi NNW 16.1 mph 21.9 mph N/A   Overcast
5:35 AM 44.6 °F 36.4 °F 35.6 °F 71% 30.14 in 10.0 mi NNW 20.7 mph 27.6 mph N/A Thunderstorm Overcast
5:55 AM 42.8 °F 35.8 °F 37.4 °F 81% 30.16 in 9.0 mi NNW 13.8 mph 21.9 mph 0.05 in   Overcast
6:15 AM 42.8 °F 34.8 °F 37.4 °F 81% 30.16 in 10.0 mi North 17.3 mph 26.5 mph 0.01 in Thunderstorm Overcast
6:35 AM 42.8 °F 35.1 °F 37.4 °F 81% 30.18 in 10.0 mi North 16.1 mph 24.2 mph 0.01 in   Overcast
6:55 AM 42.8 °F 36.2 °F 37.4 °F 81% 30.18 in 10.0 mi North 12.7 mph - 0.01 in   Overcast
7:15 AM 42.8 °F 36.2 °F 37.4 °F 81% 30.19 in 10.0 mi North 12.7 mph 17.3 mph N/A   Overcast
7:35 AM 42.8 °F 36.6 °F 37.4 °F 81% 30.20 in 10.0 mi North 11.5 mph 16.1 mph N/A   Overcast
7:55 AM 42.8 °F 36.6 °F 37.4 °F 81% 30.21 in 10.0 mi North 11.5 mph - N/A   Overcast
8:15 AM 42.8 °F 36.6 °F 37.4 °F 81% 30.23 in 10.0 mi North 11.5 mph 16.1 mph N/A   Overcast
8:35 AM 44.6 °F 38.8 °F 37.4 °F 76% 30.23 in 10.0 mi North 11.5 mph - N/A   Overcast
8:55 AM 44.6 °F 38.8 °F 37.4 °F 76% 30.24 in 10.0 mi NNW 11.5 mph 19.6 mph N/A   Overcast
9:15 AM 44.6 °F 38.4 °F 37.4 °F 76% 30.25 in 10.0 mi North 12.7 mph - N/A   Overcast
9:35 AM 44.6 °F 37.8 °F 35.6 °F 71% 30.25 in 10.0 mi North 15.0 mph 25.3 mph N/A   Overcast
9:55 AM 44.6 °F 38.1 °F 35.6 °F 71% 30.25 in 10.0 mi North 13.8 mph 25.3 mph N/A   Overcast
10:15 AM 44.6 °F 38.1 °F 37.4 °F 76% 30.25 in 10.0 mi North 13.8 mph 20.7 mph N/A   Overcast
10:35 AM 44.6 °F 39.2 °F 37.4 °F 76% 30.26 in 10.0 mi North 10.4 mph 21.9 mph N/A   Overcast
10:55 AM 46.4 °F 41.1 °F 37.4 °F 71% 30.27 in 10.0 mi North 11.5 mph 20.7 mph N/A   Overcast
11:15 AM 48.2 °F - 37.4 °F 66% 30.27 in 10.0 mi North 9.2 mph 17.3 mph N/A   Overcast
11:35 AM 50.0 °F - 39.2 °F 66% 30.26 in 10.0 mi North 11.5 mph - N/A   Overcast
11:55 AM 51.8 °F - 39.2 °F 62% 30.26 in 10.0 mi North 13.8 mph 19.6 mph N/A   Mostly Cloudy
12:15 PM 53.6 °F - 39.2 °F 58% 30.25 in 10.0 mi NNE 8.1 mph - N/A   Scattered Clouds
12:35 PM 55.4 °F - 39.2 °F 54% 30.24 in 10.0 mi NE 11.5 mph 17.3 mph N/A   Partly Cloudy
12:55 PM 55.4 °F - 41.0 °F 58% 30.23 in 10.0 mi ENE 9.2 mph 16.1 mph N/A   Clear
1:15 PM 57.2 °F - 41.0 °F 55% 30.22 in 10.0 mi North 9.2 mph - N/A   Clear
1:35 PM 59.0 °F - 41.0 °F 51% 30.22 in 10.0 mi ENE 9.2 mph - N/A   Clear
1:55 PM 60.8 °F - 41.0 °F 48% 30.21 in 10.0 mi NNE 6.9 mph - N/A   Clear
2:15 PM 60.8 °F - 41.0 °F 48% 30.21 in 10.0 mi ENE 9.2 mph 16.1 mph N/A   Clear
2:35 PM 62.6 °F - 41.0 °F 45% 30.21 in 10.0 mi NNE 10.4 mph - N/A   Clear
2:55 PM 62.6 °F - 41.0 °F 45% 30.20 in 10.0 mi NE 5.8 mph - N/A   Clear
3:15 PM 62.6 °F - 42.8 °F 48% 30.20 in 10.0 mi NNE 6.9 mph - N/A   Clear
3:35 PM 64.4 °F - 42.8 °F 45% 30.20 in 10.0 mi ENE 5.8 mph - N/A   Clear
3:55 PM 64.4 °F - 42.8 °F 45% 30.19 in 10.0 mi NE 9.2 mph - N/A   Clear
4:15 PM 64.4 °F - 42.8 °F 45% 30.18 in 10.0 mi North 10.4 mph - N/A   Clear
4:35 PM 64.4 °F - 42.8 °F 45% 30.17 in 10.0 mi NE 5.8 mph - N/A   Clear
4:55 PM 66.2 °F - 42.8 °F 43% 30.17 in 10.0 mi NNE 6.9 mph 17.3 mph N/A   Clear
5:15 PM 66.2 °F - 42.8 °F 43% 30.17 in 10.0 mi North 12.7 mph 17.3 mph N/A   Clear
5:35 PM 66.2 °F - 42.8 °F 43% 30.17 in 10.0 mi North 9.2 mph - N/A   Clear
5:55 PM 64.4 °F - 41.0 °F 42% 30.17 in 10.0 mi ENE 6.9 mph - N/A   Clear
6:15 PM 64.4 °F - 41.0 °F 42% 30.17 in 10.0 mi NNE 6.9 mph - N/A   Clear
6:35 PM 64.4 °F - 41.0 °F 42% 30.18 in 10.0 mi NE 5.8 mph - N/A   Clear
6:55 PM 62.6 °F - 39.2 °F 42% 30.18 in 10.0 mi NE 4.6 mph - N/A   Clear
7:15 PM 62.6 °F - 41.0 °F 45% 30.19 in 10.0 mi NNE 5.8 mph - N/A   Clear
7:35 PM 60.8 °F - 41.0 °F 48% 30.20 in 10.0 mi NNE 3.5 mph - N/A   Clear
7:55 PM 59.0 °F - 41.0 °F 51% 30.21 in 10.0 mi NNE 4.6 mph - N/A   Clear
8:15 PM 57.2 °F - 39.2 °F 51% 30.22 in 10.0 mi NE 4.6 mph - N/A   Clear
8:35 PM 57.2 °F - 41.0 °F 55% 30.22 in 10.0 mi NNE 4.6 mph - N/A   Partly Cloudy
8:55 PM 55.4 °F - 41.0 °F 58% 30.23 in 10.0 mi NE 4.6 mph - N/A   Mostly Cloudy
9:55 PM 57.2 °F - 39.2 °F 51% 30.26 in 10.0 mi NNE 3.5 mph - N/A   Overcast
10:15 PM 57.2 °F - 41.0 °F 55% 30.26 in 10.0 mi NE 3.5 mph - N/A   Overcast
10:35 PM 55.4 °F - 39.2 °F 54% 30.27 in 10.0 mi Calm Calm - N/A   Mostly Cloudy
10:55 PM 55.4 °F - 41.0 °F 58% 30.26 in 10.0 mi NE 4.6 mph - N/A   Overcast
11:15 PM 55.4 °F - 39.2 °F 54% 30.26 in 10.0 mi NE 4.6 mph - N/A   Overcast
11:35 PM 55.4 °F - 39.2 °F 54% 30.26 in 10.0 mi NE 6.9 mph - N/A   Mostly Cloudy
11:55 PM 55.4 °F - 41.0 °F 58% 30.26 in 10.0 mi North 5.8 mph - N/A   Overcast